{"data":{"norad_id":62388,"epoch":"2026-09-21T02:03:58.042944Z","epoch_age_seconds":261315,"freshness":"STALE","line1":"1 62388U 24247M   26264.08608846  .00003584  00000+0  16531-3 0  9994","line2":"2 62388  45.0001 152.7559 0000760 218.7664 141.3163 15.22177202 97341","mean_motion":15.22177202,"eccentricity":7.6e-5,"inclination_deg":45.0001,"raan_deg":152.7559,"arg_perigee_deg":218.7664,"mean_anomaly_deg":141.3163,"bstar":0.00016531,"rev_number":9734,"period_min":94.601338011631,"perigee_km":498.75216618458,"apogee_km":499.7975327857,"semimajor_km":6877.4118494851,"source":"CELESTRAK","updated_at":"2026-09-23T09:00:21.393935Z"}}